星链-35868(STARLINK-35868)

导读 | 豆包AI

STARLINK-35868是美国太空探索技术公司Starlink星座的一员,于2025年11月21日发射升空。该卫星主要为全球范围内用户提供低延迟、高速率的宽带互联网服务,尤其服务偏远地区及网络基础设施薄弱区域。作为星链组网的卫星节点,它进一步扩充了Starlink低轨卫星互联网星座的规模,助力星座实现更好的全球覆盖能力。

基本信息
目录编号:
66579
目录名称:
STARLINK-35868
国际标识:
2025-268Y
轨道中心:
EARTH
卫星名称:
星链-35868
卫星全名:
星链-35868(STARLINK-35868)
卫星状态:
在轨 (已飞行113 天)
发射日期:
2025-11-21 UTC
国别 :
美国 (US)
星等 :
--
轨道信息
数据来源 国际轨道数据
星历时间: 2026-03-13T10:36:33+0800
1天前
查看轨道信息
半长轴: 6861.094km
偏心率: 0.000168
轨道倾角: 43.003°
近地点辐角 257.822°
升交点赤经 327.669°
平近点角 102.245°
近地点: 481.804km
远地点: 484.11km
周期: 94.265分钟
每日圈数: 15.276108
详细信息
固有亮度:
5
最大亮度:
2.5
卫星平台:
Starlink V1.0
覆盖范围:
全球
运营商:
太空探索技术公司
运营商所在国:
美国
制造商(研发单位):
太空探索技术公司
制造商所在国:
美国
使用方式:
暂无
卫星简介
Starlink 计划是 SpaceX 推出的全球卫星互联网项目,通过发射低轨道卫星,为全球尤其是偏远地区提供高速、低延迟的互联网服务。自 2019 年起,Starlink 已部署数千颗卫星,旨在缩小全球数字鸿沟,推动互联网普及。该项目还为军事、航空等行业提供通信支持,带来广泛经济效益。
2D轨道图
3D轨道图
轨道高度分析图
轨道倾角分析图
轨道综合分析图
查看轨道综合分析图